User: anonymous   Login
Location: Unspecified
(0.0000°N, 0.0000°E)
Time: 14:31:00
(UTC+00:00)
Language:

AUBIESAT-1 - Orbit

View from above orbital plane
View from above orbital plane
View from above satellite
View from above satellite

Ground track
Ground track

The orbit data is extracted from the following two-line orbital elements,

1 37854U 11061E   14327.21614343  .00009981  00000-0  63225-3 0  9669
2 37854 101.7087 075.3603 0206249 312.2117 107.6172 14.93409652166423
Epoch (UTC): 23 November 2014 05:11:14
Eccentricity: 0.0206249
inclination: 101.7087°
perigee height: 443 km
apogee height: 731 km
right ascension of ascending node: 75.3603°
argument of perigee: 312.2117°
revolutions per day: 14.93409652
mean anomaly at epoch: 107.6172°
orbit number at epoch: 16642

The dashed part of the orbit path shows where the satellite is in the earth's shadow,  

DLR